Location: ????????
(56.0167°N, 38.0333°E)
Time: 02:51:12
(UTC+00:00)

COSMOS 2428 - Pass Details

Date: 19 May 2025
Orbit: 845 x 853 km, 70.9° (Epoch: 14 June)

Event Time Altitude Azimuth Distance (km) Brightness Sun altitude
Rises 21:11:57 0° 323° (NW) 3,434 6.9 -14.0°
Reaches altitude 10° 21:14:31 10° 329° (NNW) 2,496 6.2 -14.0°
Maximum altitude 21:20:04 49° 44° (NE) 1,096 3.6 -14.0°
Drops below altitude 10° 21:25:37 10° 120° (ESE) 2,485 4.9 -14.0°
Enters shadow 21:27:59 - 125° (SE) 3,357 5.5 -14.0°
